Regional Weather Roundup
Issued by NWS

Home | Current Version | Previous Version | Text Only | Print | Product List | Glossary Off
Versions: 1 2 3 4 5 6 7 8 9 10 11 12 13 14 15 16 17 18 19 20 21 22 23 24 25 26 27 28 29 30 31 32 33 34 35 36 37 38 39 40 41 42 43 44 45 46 47 48 49 50

763
ASUS43 KIND 231800
RWRIN

WEATHER ROUNDUP FOR INDIANA
NATIONAL WEATHER SERVICE INDIANAPOLIS IN
200 PM EDT WED AUG 23 2017

NOTE: "FAIR" INDICATES FEW OR NO CLOUDS BELOW 12,000 FEET WITH NO
SIGNIFICANT WEATHER AND/OR OBSTRUCTIONS TO VISIBILITY.

* - STATION DOES NOT REPORT WEATHER SUCH AS PRECIPITATION OR FOG.

+ - STATION NOT QUALITY CONTROLLED BY THE NATIONAL WEATHER SERVICE.
    USE DATA WITH CAUTION...ESPECIALLY DEWPOINT AND RELATIVE
    HUMIDITY OBSERVATIONS.

INZ001>003-010>013-019-020-231900-
NORTHWEST INDIANA

CITY           SKY/WX    TMP DP  RH WIND       PRES   REMARKS
MICHIGAN CITY+ SUNNY     72  54  53 NW9G18    30.05F
MONTICELLO +   MOSUNNY   73  52  48 NW8       30.04F
6HR MIN TEMP:  55; 6HR MAX TEMP:  74;


$$

LMZ046-743>745-231900-
SOUTHERN LAKE MICHIGAN

STATION/POSITION TIME  TEMP    WIND        PRES    WAVE
                       AIR SEA DIR/SP/G            HT
                 (UTC) (F)     (DEG/KT/KT) (MB)    (FT)
BURNS HARBOR     1740   69      10/ 10/ 13 1017.9F
MICHIGAN CITY    1730   69     310/ 13/ 15   N/A
5NW MICH CITY    1750   68 74  340/ 12/ 16   N/A     4

$$

INZ004-005-014>016-021>024-231900-
NORTH CENTRAL INDIANA

CITY           SKY/WX    TMP DP  RH WIND       PRES   REMARKS
ELKHART        MOSUNNY   73  50  43 NW17      30.02S
GOSHEN         MOSUNNY   75  51  43 NW14      30.01F
6HR MIN TEMP:  57; 6HR MAX TEMP:  75;

SOUTH BEND     MOSUNNY   73  54  51 W14G22    30.03F
6HR MIN TEMP:  59; 6HR MAX TEMP:  74;


$$

INZ006>009-017-018-025>027-231900-
NORTHEAST INDIANA

CITY           SKY/WX    TMP DP  RH WIND       PRES   REMARKS
FORT WAYNE     PTSUNNY   71  52  50 W15G22    30.02F
6HR MIN TEMP:  58; 6HR MAX TEMP:  76;

KENDALLVILLE + PTSUNNY   70  53  54 NW6G17    30.02S

$$

INZ028-029-035-036-043>045-051>053-231900-
WEST CENTRAL INDIANA

CITY           SKY/WX    TMP DP  RH WIND       PRES   REMARKS
LAFAYETTE      MOSUNNY   75  53  46 NW13      30.05F
6HR MIN TEMP:  55; 6HR MAX TEMP:  75;

TERRE HAUTE    MOSUNNY   77  51  40 NW10G17   30.07F
6HR MIN TEMP:  58; 6HR MAX TEMP:  77;


$$

INZ030>032-037>040-046>048-054>057-064-065-231900-
CENTRAL INDIANA

CITY           SKY/WX    TMP DP  RH WIND       PRES   REMARKS
COLUMBUS       MOSUNNY   73  50  43 N7        30.05F
GREENWOOD *+   MOSUNNY   76  51  40 NW5       30.06
INDIANAPOLIS   PTSUNNY   78  49  35 NW15      30.05F
6HR MIN TEMP:  60; 6HR MAX TEMP:  78;

-EAGLE CREEK   MOSUNNY   77  49  37 NW10G17   30.05F
6HR MIN TEMP:  62; 6HR MAX TEMP:  78;

KOKOMO +       MOSUNNY   74  53  48 W14       30.05F
6HR MIN TEMP:  59; 6HR MAX TEMP:  74;

SHELBYVILLE    MOSUNNY   77  51  40 NW8       30.04F
6HR MIN TEMP:  60; 6HR MAX TEMP:  77;


$$

INZ033-034-041-042-049-050-058-059-231900-
EAST CENTRAL INDIANA

CITY           SKY/WX    TMP DP  RH WIND       PRES   REMARKS
MUNCIE         MOSUNNY   77  53  43 NW8       30.04F
6HR MIN TEMP:  61; 6HR MAX TEMP:  77;

RICHMOND +     MOSUNNY   72  52  49 NW8       30.06S

$$

INZ060-061-067>069-081>083-085>088-231900-
SOUTHWEST INDIANA

CITY           SKY/WX    TMP DP  RH WIND       PRES   REMARKS
EVANSVILLE     MOSUNNY   78  56  46 N7        30.06F
6HR MIN TEMP:  63; 6HR MAX TEMP:  79;

HUNTINGBURG +  MOSUNNY   77  58  51 W6        30.05F
6HR MIN TEMP:  60; 6HR MAX TEMP:  78;


$$

INZ062-063-066-070>080-084-089>092-231900-
SOUTH CENTRAL AND SOUTHEAST INDIANA

CITY           SKY/WX    TMP DP  RH WIND       PRES   REMARKS
BLOOMINGTON    MOSUNNY   76  51  41 CALM      30.06F
6HR MIN TEMP:  58; 6HR MAX TEMP:  78;

MADISON *+     MOSUNNY   77  50  38 N7        30.07F
SEYMOUR +      PTSUNNY   79  55  44 N6        30.04F

$$





USA.gov is the U.S. government's official web portal to all federal, state and local government web resources and services.